Location: *
(48.8884°S, 169.2083°W)
Time: 11:53:16
(UTC+00:00)

Daily predictions for brighter satellites

Satellite Brightness Start Highest point End
(mag) Time Altitude Azimuth Time Altitude Azimuth Time Altitude Azimuth
Cosmos 2263 Rocket 4.1 15:07:39 23° SE 15:07:57 24° SE 15:12:30 10° E
CZ-4C R/B 3.6 15:35:01 37° S 15:35:01 37° S 15:39:17 10° SE
USA 229 DEB 3.8 15:35:51 64° NE 15:35:51 64° NE 15:41:17 10° NE
USA 229 3.8 15:35:56 65° NE 15:35:56 65° NE 15:41:24 10° NE
Cosmos 1980 Rocket 3.7 15:32:43 23° NNE 15:35:11 33° ENE 15:40:12 10° SE
Cosmos 2369 4.3 15:38:46 54° E 15:38:46 54° E 15:43:46 10° SE
Okean O Rocket 3.5 15:34:23 10° NE 15:37:18 30° E 15:37:18 30° E
BREEZE-M R/B 4.2 15:38:52 83° SE 15:38:52 83° SE 15:50:01 10° E
Cosmos 1898 Rocket 4.4 15:45:46 45° NE 15:45:46 45° NE 15:49:33 10° NNE
NOSS 3-1 (A) 3.5 15:47:29 70° E 15:47:29 70° E 15:52:32 10° NE
NOSS 2-3 (C) 4.5 15:51:03 81° SE 15:51:04 81° SE 15:56:43 10° NE
Cosmos 2278 4.2 15:56:08 40° NNE 15:57:53 56° ENE 16:03:29 10° SE
USA 234 3.4 15:54:56 10° ENE 16:01:28 65° SSE 16:02:51 53° SSW
Cosmos 1697 Rocket 2.7 16:02:54 72° SSE 16:02:54 72° SSE 16:07:59 10° SSE
SMAP 4.0 16:00:45 10° NE 16:05:13 46° ESE 16:07:02 31° SSE
ATLAS 2AS CENTAUR R/B 4.1 16:04:40 21° S 16:05:24 21° S 16:10:19 10° SE
Cosmos 1092 Rocket 4.0 15:59:32 10° N 16:05:45 76° E 16:12:00 10° SSE
CZ-4 R/B 4.5 16:07:30 10° E 16:09:27 13° ESE 16:11:25 10° SSE
Timation 1 Rocket 4.3 16:08:50 63° SSW 16:09:53 83° ESE 16:15:56 10° NNE
CZ-4B R/B 3.3 16:04:33 10° NNE 16:10:09 77° ESE 16:12:45 34° S
Cosmos 1953 3.2 16:14:22 47° ENE 16:14:22 47° ENE 16:17:46 10° NNE
Lacrosse 5 rocket 3.1 16:16:13 25° SSE 16:16:13 25° SSE 16:18:13 10° SE
Radarsat Rocket 4.2 16:08:04 10° NNE 16:15:20 90° WSW 16:20:01 21° SSW
Cosmos 1937 Rocket 3.4 16:15:37 84° SSE 16:15:44 86° ESE 16:20:56 10° NNE
Nadezhda 4 Rocket 4.2 16:19:04 52° SW 16:19:04 52° SW 16:24:09 10° S
Cosmos 1025 Rocket 3.3 16:23:13 65° SE 16:23:13 65° SE 16:27:05 10° SSE
YAOGAN 6 3.6 16:19:40 10° NNE 16:22:43 44° E 16:22:43 44° E
ADEOS Rocket 4.5 16:18:59 10° SSE 16:23:58 32° E 16:28:58 10° NNE
Meteor 2-13 Rocket 4.5 16:20:29 10° N 16:26:38 83° E 16:32:55 10° S
SJ 16-02 3.8 16:30:58 11° N 16:30:58 11° N 16:31:09 10° N
NOAA 6 4.4 16:26:41 10° N 16:30:45 48° NW 16:30:45 48° NW
H-2A R/B 4.4 16:28:31 10° S 16:29:09 14° S 16:29:09 14° S
Cosmos 2227 4.2 16:30:35 37° SSW 16:32:59 81° ESE 16:38:40 10° NNE
AQUARIUS 4.3 16:29:03 10° NNE 16:33:34 73° ESE 16:35:53 29° S
Cosmos 2360 4.1 16:33:53 48° NW 16:35:29 71° WSW 16:41:16 10° SSE
Meteor 1-16 Rocket 4.4 16:30:26 10° S 16:36:22 77° ESE 16:42:03 10° NNE
Meteor 1-21 4.3 16:35:57 51° WNW 16:36:51 57° WSW 16:42:33 10° S
ATLAS CENTAUR R/B 3.6 16:35:12 18° S 16:37:12 23° SSE 16:41:07 10° E
Cosmos 2322 Rocket 4.3 16:35:20 10° NNE 16:40:08 28° ENE 16:44:57 10° SE
Cosmos 1726 3.2 16:43:50 35° N 16:43:50 35° N 16:46:07 10° N
Cosmos 1536 Rocket 3.4 16:39:23 10° N 16:43:45 83° W 16:48:13 10° S
Cosmos 1428 Rocket 4.4 16:39:57 10° NNW 16:46:19 80° W 16:52:45 10° S
Cosmos 1674 3.5 16:46:44 10° N 16:50:24 51° E 16:54:09 10° SSE
Cosmos 2263 Rocket 2.1 16:49:22 27° SSW 16:52:37 84° WNW 16:58:21 10° NNE
Cosmos 1553 Rocket 4.0 16:46:25 10° S 16:52:58 88° W 16:59:22 10° N
Cosmos 1627 Rocket 4.4 16:47:49 10° NNW 16:54:00 64° WSW 17:00:22 10° S
Helios 1A Rocket 3.2 16:50:17 10° NNE 16:54:22 69° ESE 16:57:51 15° S
Envisat 3.0 16:52:18 10° N 16:57:22 61° W 17:01:07 18° SSW
Cosmos 2298 Rocket 4.2 16:53:44 16° SSW 16:58:04 73° ESE 17:03:23 10° NNE
Cosmos 1606 Rocket 4.2 16:53:45 10° S 16:58:06 56° ESE 17:02:23 10° NNE
NOAA 12 4.0 16:54:22 10° N 16:59:38 75° WNW 17:04:59 10° SSW
Cosmos 1461 3.5 17:03:00 35° NW 17:03:00 35° NW 17:06:08 10° N
In-Cosmos 22 4.0 16:58:42 10° NNW 17:04:13 78° WSW 17:09:41 10° S
NOSS 3-1 (C) 4.5 17:06:26 22° WNW 17:06:26 22° WNW 17:10:02 10° NNW
S3M 4.0 17:00:01 10° S 17:06:16 87° E 17:12:27 10° N
USA 267 3.3 17:01:34 10° SE 17:08:13 87° NE 17:14:36 11° WNW
Meteor 2-10 4.4 17:06:37 31° SW 17:08:20 39° W 17:13:04 10° NNW
Cosmos 2285 Rocket 4.0 17:02:16 12° SSW 17:08:28 82° WNW 17:14:57 10° NNE
NOAA 11 4.5 17:03:40 10° NNE 17:09:11 71° ESE 17:14:46 10° S
ATLAS 5 CENTAUR R/B 3.8 17:02:50 10° N 17:09:34 45° ENE 17:15:49 10° SE
Cosmos 1437 2.8 17:06:48 10° N 17:09:50 72° E 17:12:56 10° SSE
Cosmos 2208 Rocket 3.9 17:05:53 10° NNW 17:11:06 85° WSW 17:16:24 10° SSE
Cosmos 2360 Rocket 4.5 17:06:36 10° NNE 17:11:15 27° ENE 17:15:54 10° SE
Cosmos 1814 Rocket 4.0 17:08:04 10° NNW 17:13:24 87° WSW 17:18:51 10° SSE
Okean O Rocket 2.4 17:10:50 10° NNW 17:14:45 31° W 17:14:45 31° W
H-2A R/B 4.1 17:11:47 10° ENE 17:15:41 23° ESE 17:19:38 10° S
Cosmos 1980 Rocket 2.4 17:14:37 15° NW 17:19:02 47° SW 17:24:31 10° SSE
Cosmos 1763 Rocket 3.9 17:15:53 20° WNW 17:19:10 40° WSW 17:24:10 10° SSE
SKYMED 2 4.2 17:15:04 10° SSE 17:19:27 58° E 17:23:47 10° N
CORIOLIS 4.3 17:14:37 10° N 17:19:55 51° W 17:25:15 10° SSW
Cosmos 2084 4.5 17:18:23 18° SSW 17:21:12 40° SE 17:25:17 10° ENE
ARGOS Delta rocket 3.8 17:17:36 10° N 17:22:32 62° W 17:27:15 10° SSW
Cosmos 2369 4.5 17:20:46 25° W 17:22:40 31° SW 17:27:45 10° SSE
CZ-4C R/B 3.9 17:20:13 18° SW 17:23:03 24° SSW 17:27:56 10° SE
Cosmos 1726 Rocket 3.6 17:20:57 10° S 17:25:24 84° E 17:29:46 10° N
Cosmos 1844 Rocket 3.5 17:23:44 10° SSW 17:29:20 49° SE 17:34:52 10° NE
Feng Yun 1-1 Rocket 4.4 17:27:05 10° N 17:32:30 55° W 17:38:06 10° SSW
PSLV R/B 3.9 17:30:31 10° S 17:34:42 71° WSW 17:38:53 10° NNW
KORONAS-FOTON 3.9 17:32:51 10° NNW 17:36:35 50° WSW 17:40:26 10° S
NOSS 3-1 (A) 4.5 17:34:58 19° W 17:36:53 22° WNW 17:41:04 10° NNW
Aureole 3 Rocket 4.0 17:36:46 22° W 17:37:07 23° W 17:40:36 10° NW
Cosmos 1939 Rocket 2.9 17:36:27 10° NNE 17:40:33 83° WNW 17:44:46 10° SSW
CSL-04 Rocket 4.3 17:35:49 10° NNE 17:41:10 59° ESE 17:46:39 10° S
Cosmos 1570 Rocket 4.4 17:36:47 10° NW 17:41:56 44° WSW 17:47:08 10° SSE
Cosmos 540 Rocket 3.7 17:37:00 10° NW 17:42:01 47° WSW 17:47:06 10° SSE
Cosmos 1689 Rocket 3.0 17:39:26 10° S 17:42:07 27° WSW 17:44:47 10° NW
Cosmos 2278 4.5 17:38:08 14° WNW 17:42:22 31° SW 17:47:27 10° SSE
SMAP 4.1 17:38:57 10° NNW 17:42:47 24° W 17:45:30 15° SW
SL-16 R/B 2.2 17:37:57 10° NNW 17:43:40 87° WSW 17:49:27 10° SSE
CZ-4 R/B 1.5 17:39:32 10° NNE 17:43:47 89° WNW 17:48:08 10° SSW
USA 234 3.5 17:38:08 10° NE 17:44:35 56° NW 17:50:12 14° WSW
FengYun 1-2 T 4.5 17:39:29 10° N 17:44:54 49° W 17:50:27 10° SSW
Cosmos 1626 2.1 17:42:46 10° N 17:46:33 89° E 17:50:23 10° S
Cosmos 1697 Rocket 3.9 17:44:40 17° WSW 17:47:02 22° SW 17:51:24 10° S
Cosmos 841 Rocket 3.9 17:43:10 10° NW 17:48:11 41° WSW 17:53:16 10° SSE
Cosmos 2228 3.3 17:44:42 10° SSW 17:48:52 45° W 17:52:57 10° NNW
Okean-O 2.7 17:45:01 10° N 17:49:27 62° WNW 17:53:57 10° SSW
Cosmos 1953 4.0 17:50:07 16° W 17:50:07 16° W 17:52:13 10° WNW
Cosmos 2278 Rocket 4.2 17:45:46 10° S 17:50:12 22° SE 17:54:35 10° E
SL-14 R/B 3.2 17:48:50 10° N 17:52:46 85° W 17:56:46 10° S
Orbus 7S? 3.8 17:50:26 10° NW 17:53:47 87° NNE 18:01:02 10° SE
Lacrosse 5 rocket 2.7 17:51:51 15° SW 17:54:17 26° S 17:57:49 10° ESE
Cosmos 1908 4.3 17:52:24 12° SW 17:55:19 26° W 17:58:33 10° NW
CZ-2D R/B 3.3 17:51:39 10° N 17:55:33 68° WNW 17:59:32 10° SSW
Cosmos 2150 Rocket 4.5 17:51:26 10° SW 17:56:35 43° WNW 18:01:35 10° N
YAOGAN 6 4.3 17:54:52 10° NW 17:56:54 14° W 17:57:05 14° W
Cosmos 1125 Rocket 3.6 17:51:58 10° SSW 17:57:14 64° WNW 18:02:25 10° N
Cosmos 2098 Rocket 4.0 17:51:53 10° NNW 17:57:40 77° W 18:04:45 10° S
ATLAS 2AS CENTAUR R/B 3.8 17:52:28 10° SW 17:58:14 33° SSE 18:04:23 10° E
Cosmos 1300 2.7 17:56:49 10° SSW 18:00:42 66° W 18:04:31 10° N
SL-24 R/B 4.2 18:02:10 10° N 18:06:29 68° WNW 18:11:06 10° SSW
COSMO-SKYMED 1 2.8 18:03:14 10° S 18:07:31 48° WSW 18:11:44 10° NW
ASTEX 1 4.2 18:03:55 10° NNW 18:08:13 30° W 18:12:37 10° SSW
Meteor 1-24 Rocket 3.6 18:02:55 10° NNW 18:08:17 71° WSW 18:13:40 10° S
ADEOS Rocket 3.1 18:04:27 10° S 18:09:40 42° WSW 18:14:54 10° NW
Cosmos 1818 3.6 18:05:00 10° NW 18:10:26 85° SW 18:15:54 10° SE
Cosmos 1892 Rocket 3.7 18:06:26 10° NNW 18:10:50 53° WSW 18:15:17 10° S
Cosmos 1455 3.7 18:10:42 10° S 18:14:18 37° ESE 18:17:51 10° NE
SL-24 R/B - RUBIN 2 4.2 18:09:54 10° NNW 18:14:35 63° NE 18:18:54 10° SE
Cosmos 1655 Rocket 4.4 18:09:09 10° NW 18:15:00 40° WSW 18:20:54 10° S
ATLAS CENTAUR R/B 1.8 18:11:55 10° SW 18:16:48 88° SE 18:21:40 10° NE
YAOGAN 1 2.9 18:15:54 10° N 18:20:07 47° W 18:24:25 10° SSW
Cosmos 1356 Rocket 4.1 18:17:17 10° SSW 18:21:05 35° W 18:24:55 10° NNW
Cosmos 2266 Rocket 4.3 18:15:48 10° NW 18:21:50 46° WSW 18:27:51 10° S
Cosmos 1626 Rocket 3.8 18:17:43 10° N 18:22:05 74° E 18:26:29 10° SSE
Meteor 2-5 Rocket 4.1 18:18:23 10° NW 18:23:41 43° WSW 18:29:02 10° S
Cosmos 2322 Rocket 2.3 18:18:14 10° NW 18:23:51 56° WSW 18:29:32 10° SSE
SJ-6B 4.3 18:20:33 10° NE 18:24:02 35° ESE 18:27:33 10° S
Cosmos 1674 4.3 18:23:59 10° WNW 18:26:16 15° WSW 18:28:34 10° SSW
USA 186 2.7 18:24:37 10° NE 18:27:04 39° ESE 18:29:43 10° S
Cosmos 2058 Rocket 3.7 18:23:41 10° SSW 18:27:47 36° W 18:31:52 10° NNW
